This is the latest recevied weather packets stored in our database for station/object CE2LOH-10. If no packets are shown the sender has not sent any weather packets the latest 10 day(s).
| Time | Temp. | Humidity | Pressure | Rain* | Wind** | Luminosity | Snow |
|---|---|---|---|---|---|---|---|
| 1778183663 | 20° C | 45% | 1000.3 hPa | - | - | - | - |
| 1778182763 | 20° C | 45% | 999.9 hPa | - | - | - | - |
| 1778181863 | 20° C | 46% | 1000 hPa | - | - | - | - |
| 1778180962 | 20° C | 46% | 1000.1 hPa | - | - | - | - |
| 1778180062 | 20° C | 47% | 1000.1 hPa | - | - | - | - |
| 1778179162 | 20° C | 48% | 1000.2 hPa | - | - | - | - |
| 1778178262 | 19.44° C | 49% | 1000.3 hPa | - | - | - | - |
| 1778177362 | 19.44° C | 49% | 1000.5 hPa | - | - | - | - |
| 1778176462 | 19.44° C | 50% | 1000.8 hPa | - | - | - | - |
| 1778175562 | 19.44° C | 50% | 1001.1 hPa | - | - | - | - |
| 1778174662 | 18.89° C | 50% | 1001.3 hPa | - | - | - | - |
| 1778173761 | 18.89° C | 51% | 1001.7 hPa | - | - | - | - |
| 1778172861 | 18.33° C | 52% | 1002 hPa | - | - | - | - |
| 1778171961 | 18.33° C | 53% | 1002.2 hPa | - | - | - | - |
| 1778171061 | 17.78° C | 54% | 1002.2 hPa | - | - | - | - |
| 1778170161 | 17.22° C | 55% | 1002.5 hPa | - | - | - | - |
| 1778169261 | 17.22° C | 55% | 1002.7 hPa | - | - | - | - |
| 1778168361 | 16.67° C | 56% | 1002.8 hPa | - | - | - | - |
| 1778167461 | 16.11° C | 56% | 1002.9 hPa | - | - | - | - |
| 1778166561 | 16.11° C | 57% | 1003 hPa | - | - | - | - |
| 1778165660 | 15.56° C | 57% | 1003 hPa | - | - | - | - |
| 1778164760 | 15° C | 57% | 1003.2 hPa | - | - | - | - |
| 1778163860 | 15° C | 58% | 1003.4 hPa | - | - | - | - |
| 1778162960 | 14.44° C | 58% | 1003.4 hPa | - | - | - | - |
| 1778162060 | 14.44° C | 58% | 1003.4 hPa | - | - | - | - |
* Rain since midnight (hover to see other rain measurements)
** Current wind speed in m/s (hover to see current wind gust speed)